Volver al catálogo

BLOCK DM-SL R/B

ActivoGEO
NORAD 55507·ROCKET BODY·🇷🇺 Russia

Lanzado Feb 5, 2023 desde Baikonur Cosmodrome

Loading…

TLE

ActualizadoSource: Space-Track

Época: Sep 14, 2026, 04:04 UTC

1 55507U 23016B   26257.16974590 -.00000072  00000-0  00000+0 0  9996
2 55507   2.8598  78.7743 0090756 249.6416 109.8498  1.03219447 13599

Sigue BLOCK DM-SL R/B en tiempo real con AllMySat

Download on the App Store